Theta_e
310 310 311 310 311 312 312 312 312 312 314 313 313 313 313 311 309 308 305 308 303 296 297 298 299 296 297 295 291 294 295 294 294 290 289 289 288 290 290 292 292 289 289 288 290 288 287 306 309 302 306 310 311 314
310 310 310 311 311 312 312 312 312 312 313 313 312 312 312 310 309 307 303 309 307 301 297 300 302 303 302 300 298 296 293 293 295 292 293 293 291 293 291 286 297 292 295 294 293 294 304 306 306 309 309 307 314 315
310 309 310 310 311 311 311 312 312 312 312 312 311 312 312 310 309 307 306 305 304 298 298 297 298 301 303 303 305 296 297 297 297 299 296 294 289 295 289 291 293 295 299 296 297 302 304 306 307 307 308 309 314 318
310 309 310 310 311 310 310 311 312 312 312 311 311 312 310 309 308 307 305 306 302 298 293 295 301 299 302 302 302 303 301 302 302 300 296 293 291 295 293 292 293 297 299 297 298 302 305 307 308 306 307 310 315 318
310 310 309 310 310 311 311 310 311 311 311 310 310 311 309 308 306 307 307 306 306 298 293 295 299 301 305 302 300 301 300 299 300 298 295 293 296 295 296 295 293 300 296 295 295 301 302 304 308 307 306 308 310 318
309 309 309 310 310 310 310 310 311 310 310 310 310 311 309 308 306 305 300 306 308 305 296 292 298 298 303 301 300 299 298 299 299 297 296 297 298 298 292 291 297 300 302 302 299 304 304 305 306 308 306 306 310 317
309 308 309 309 309 310 310 309 310 310 309 309 309 309 308 308 306 301 299 304 307 306 297 292 293 297 304 304 303 301 300 299 298 298 296 296 298 299 294 288 296 300 301 302 303 303 301 305 304 308 306 308 314 320
310 309 309 309 309 309 309 309 310 309 309 309 308 308 308 308 306 302 305 307 305 302 299 289 290 294 301 297 298 304 301 300 300 298 298 295 297 291 289 293 295 299 301 301 303 304 304 304 305 306 308 311 313 316
311 309 309 308 309 309 308 309 310 309 309 309 309 309 307 306 302 303 307 308 307 301 293 292 287 287 299 296 298 298 299 294 301 296 294 293 289 286 291 291 293 296 297 300 303 304 304 303 303 304 307 310 312 314
312 311 309 309 309 309 309 308 309 309 308 309 308 304 301 303 308 308 303 299 299 298 296 294 297 290 294 294 292 294 295 292 289 292 294 288 289 294 294 294 295 298 300 301 299 301 303 301 303 305 306 308 312 315
311 312 311 309 309 308 309 308 309 308 307 307 305 304 306 309 304 299 295 293 293 292 295 296 297 295 298 292 292 294 289 289 285 290 290 288 288 290 297 299 301 304 305 308 305 305 306 307 306 306 307 310 314 313
311 311 311 311 309 308 308 308 308 308 307 308 307 308 306 302 299 294 294 291 288 292 296 297 299 300 300 303 296 294 293 292 286 297 291 286 291 297 299 299 301 304 304 304 306 306 307 308 310 308 310 311 311 311
310 310 310 309 308 308 309 308 308 307 308 309 305 303 302 301 291 294 293 298 297 296 298 299 299 302 300 301 299 296 291 291 298 290 287 291 297 299 301 301 301 304 303 301 302 304 304 303 305 306 304 305 305 305
310 310 308 308 310 309 309 308 309 308 306 303 303 293 298 297 298 300 301 302 304 302 300 302 300 300 299 297 297 291 295 295 287 284 286 294 298 299 300 303 303 303 303 301 300 301 302 303 302 303 304 304 303 302
310 310 309 310 309 310 310 308 309 309 304 300 303 293 299 305 305 305 305 302 303 304 303 300 300 300 297 294 295 293 289 286 288 288 294 299 301 301 301 302 304 304 305 305 305 303 302 302 302 301 302 303 304 303
310 309 310 309 309 309 309 309 309 308 305 302 302 301 307 303 305 303 303 302 305 304 303 304 299 295 293 294 291 289 288 286 292 297 299 302 302 301 301 304 306 306 304 304 306 305 305 303 302 302 303 302 302 301
309 309 308 308 309 309 309 308 306 303 301 302 304 308 307 306 306 307 306 303 307 304 298 298 292 291 295 291 290 293 292 295 299 299 301 303 303 301 301 302 305 306 302 300 300 301 305 306 306 303 301 301 301 302
311 312 308 307 308 309 309 308 305 304 301 306 306 311 307 309 307 309 307 305 306 300 299 296 297 293 290 287 290 296 298 301 301 302 302 302 304 303 302 300 299 299 299 298 299 299 299 301 304 304 304 303 301 300
312 313 310 309 307 305 303 306 307 304 309 312 310 308 308 311 311 312 309 305 304 304 300 298 295 292 293 297 297 298 299 300 302 303 303 304 304 302 301 300 299 298 298 297 297 296 296 298 298 302 307 306 301 300
309 308 309 310 308 304 304 308 312 309 310 309 309 308 310 311 313 311 306 304 304 303 300 298 298 299 299 301 301 301 302 301 300 298 298 301 303 301 300 300 299 299 298 297 297 294 296 297 298 299 302 303 303 300
308 310 310 309 307 306 307 309 309 312 313 309 309 310 310 311 310 309 307 306 304 303 301 302 303 304 304 305 303 302 302 303 301 302 302 300 301 299 298 298 298 298 297 296 295 294 295 296 298 300 302 301 303 300
310 311 310 310 309 310 307 312 308 312 309 309 309 310 309 309 309 309 309 306 306 307 306 305 304 303 303 304 304 303 305 305 305 301 296 298 298 296 296 297 297 296 296 295 295 294 296 298 300 301 301 300 299 299
308 308 308 310 307 304 305 317 312 314 307 308 310 307 307 308 310 310 307 309 309 311 307 307 307 307 307 308 307 306 306 306 305 305 301 301 299 298 298 297 297 296 295 295 296 297 297 293 297 299 298 299 298 297
307 306 306 307 303 299 310 306 311 309 308 307 306 304 306 309 310 307 304 308 311 309 306 306 305 303 304 306 305 305 307 307 305 301 301 298 296 296 297 296 296 296 297 296 296 297 298 297 293 296 296 295 295 294
300 300 300 292 307 307 307 307 305 305 303 306 305 306 307 310 305 303 303 306 308 308 307 307 307 306 303 304 306 307 308 305 301 299 298 299 297 295 295 295 296 296 297 295 295 296 296 297 296 295 294 294 294 294
293 301 298 305 305 304 305 301 304 304 304 304 306 308 308 305 301 302 305 307 307 311 308 307 307 307 307 309 308 308 306 303 302 300 298 298 298 297 295 294 293 293 296 296 296 295 295 296 295 294 294 294 291 293
293 299 303 310 309 306 304 307 306 304 304 304 307 305 304 300 301 308 311 310 310 313 314 312 311 310 310 310 310 307 304 302 303 303 301 299 299 300 298 295 294 296 297 296 296 296 295 295 294 294 294 295 296 296
300 303 299 304 304 307 303 304 303 303 305 309 308 303 302 304 307 315 313 313 313 315 315 314 314 314 313 312 307 301 299 298 297 298 297 297 298 298 298 298 299 290 298 298 297 297 297 296 296 295 295 295 297 298
303 307 305 301 302 303 303 303 304 306 310 310 308 307 308 314 318 318 315 315 310 311 310 308 305 306 304 303 302 300 298 299 298 296 295 294 295 295 297 298 298 298 298 297 290 292 297 297 297 297 297 297 298 298
304 308 304 304 300 300 304 307 307 312 311 314 315 314 314 315 317 320 315 310 307 311 313 311 306 307 305 303 298 297 299 301 301 299 297 296 296 298 297 297 297 298 298 298 297 298 293 295 296 298 297 298 298 298
307 306 304 304 303 306 308 309 308 310 311 312 313 311 313 315 318 319 316 312 311 312 309 306 306 307 305 303 300 298 297 298 299 300 299 299 298 297 298 298 298 298 298 297 297 297 296 296 297 297 297 297 298 297
305 304 303 302 305 310 310 307 307 306 309 310 311 314 315 313 311 314 314 310 309 308 305 307 307 305 306 306 304 304 295 302 299 299 298 298 298 298 298 298 298 298 298 297 298 297 297 297 297 297 297 298 298 298
306 306 305 305 306 307 308 308 307 307 309 311 312 313 312 312 310 316 316 313 312 310 309 308 310 309 305 304 303 302 297 301 297 292 291 292 292 294 297 298 299 299 298 298 298 298 298 298 298 298 298 298 298 298
Wind_Speed
14 15 15 16 15 13 12 11 9 10 10 11 9 9 7 6 5 2 2 3 1 1 2 2 2 2 0 1 2 5 3 4 4 0 1 2 2 2 3 1 0 2 4 5 5 5 6 16 4 5 6 8 13 14
15 15 15 14 14 12 11 9 8 9 9 8 7 7 6 5 6 2 1 2 1 1 3 2 5 6 5 2 1 1 1 4 2 3 2 1 1 1 3 3 1 4 3 3 5 3 2 7 4 6 10 13 9 12
14 15 15 13 13 12 9 8 7 8 7 7 7 6 4 6 8 4 1 2 1 2 2 3 0 3 3 8 6 2 2 0 3 1 1 2 2 1 2 2 3 4 2 3 5 4 5 7 4 6 11 13 14 14
12 15 13 13 13 11 8 7 7 7 6 6 6 7 7 7 7 5 2 3 2 1 2 3 3 1 2 3 9 8 2 3 1 2 1 1 1 1 1 3 4 2 1 3 7 5 8 5 8 11 16 17 16 14
12 12 14 12 12 10 7 6 6 6 6 5 4 5 4 5 6 4 2 2 2 2 2 2 4 3 4 4 6 6 5 3 2 1 1 2 2 2 2 3 5 2 2 3 3 6 6 9 10 15 15 17 19 16
11 12 13 11 10 10 8 6 5 5 4 4 4 6 3 5 5 0 1 1 2 1 2 0 2 2 6 4 6 6 4 2 2 2 1 2 2 3 3 3 2 1 3 3 5 12 13 16 14 12 12 16 19 15
10 11 13 12 11 9 9 6 4 4 2 3 5 4 3 5 2 2 2 2 3 1 2 1 2 3 3 1 2 3 3 2 2 1 3 2 2 4 3 5 4 7 8 8 8 9 14 9 5 14 14 17 18 11
10 10 11 12 10 8 8 7 5 4 3 2 1 2 1 2 2 1 0 1 1 1 2 1 2 2 6 2 2 3 1 1 2 2 1 2 0 3 4 7 13 14 13 14 14 12 15 13 13 13 13 15 13 7
10 9 9 10 10 9 8 8 7 6 4 5 4 4 1 0 0 1 3 4 1 2 1 1 1 2 3 2 2 2 2 1 2 2 2 3 2 3 4 12 16 19 14 14 11 10 11 13 12 12 14 14 10 10
10 10 10 10 10 10 9 7 7 6 4 4 2 2 1 1 2 2 2 1 0 2 0 2 1 1 1 1 1 0 1 1 1 3 2 2 3 8 12 16 17 19 18 16 13 15 12 10 10 12 9 10 11 9
11 11 11 11 11 10 9 6 5 3 2 2 1 1 2 2 1 0 1 1 1 2 3 3 3 1 4 2 2 1 1 1 2 2 1 2 3 6 13 15 13 12 9 6 15 11 8 8 9 8 9 8 4 5
11 12 12 13 11 10 7 5 5 3 1 1 2 1 1 2 1 1 1 0 2 2 3 2 1 2 3 2 2 4 1 3 2 1 1 2 5 8 9 14 18 15 17 22 7 9 2 6 7 8 7 2 7 8
12 12 14 15 10 7 6 6 9 3 2 2 2 2 1 1 2 1 3 2 2 5 4 4 3 1 3 2 2 3 3 2 1 1 2 3 5 8 9 6 9 11 14 19 22 18 17 17 16 11 12 10 11 12
13 11 12 12 8 7 4 7 8 5 2 2 2 3 4 3 5 4 3 2 1 3 4 3 3 1 1 2 1 0 2 2 1 2 3 4 7 6 8 8 8 10 9 14 15 15 13 16 16 12 14 10 10 13
13 12 12 3 8 9 4 10 11 3 3 2 3 4 7 5 3 2 2 1 3 4 5 3 2 2 2 2 1 2 1 2 1 1 0 2 5 7 6 6 8 11 10 8 9 9 10 10 9 8 10 9 8 10
13 12 2 4 9 7 9 10 3 2 2 3 5 5 5 3 2 2 3 2 5 5 3 1 2 2 2 1 2 1 3 3 2 2 2 1 2 3 5 6 5 5 7 8 8 9 8 8 6 8 5 7 6 9
9 2 6 5 9 8 9 1 3 4 4 5 6 7 7 6 6 3 4 3 5 5 2 2 3 1 3 2 2 3 3 3 3 3 3 3 2 0 2 3 4 5 6 8 8 8 8 4 7 7 8 6 8 8
3 5 7 6 5 3 2 3 3 4 7 7 5 3 4 4 3 2 3 4 5 4 4 2 3 4 3 3 3 3 3 2 2 2 1 3 4 3 1 2 4 5 6 6 6 7 7 7 5 4 5 4 5 5
5 6 8 6 4 2 3 5 4 5 8 3 4 3 3 2 2 1 3 5 1 2 6 3 3 3 3 3 3 4 3 3 2 2 3 4 4 4 3 2 2 3 5 5 6 5 5 5 4 4 2 2 2 2
13 12 11 7 13 2 4 3 4 4 5 1 2 2 2 0 1 2 4 4 5 3 3 4 3 3 3 4 4 3 4 4 3 3 3 2 3 4 3 1 1 2 2 3 3 5 7 5 4 3 2 1 1 2
4 4 9 5 3 3 5 3 4 4 3 3 0 2 1 1 2 3 3 4 4 3 3 3 3 4 3 4 4 3 5 5 5 3 1 3 4 4 3 2 1 1 2 3 5 5 4 5 5 4 3 3 2 3
2 1 2 4 3 4 5 5 4 2 3 2 2 1 2 2 2 2 3 4 3 3 4 5 5 7 6 6 6 7 4 7 4 3 3 6 5 5 5 4 3 2 2 3 3 4 3 3 3 4 4 5 3 3
2 3 2 3 3 3 7 2 4 4 3 1 1 2 2 2 1 2 3 3 3 2 3 4 6 7 7 7 5 5 5 5 4 3 4 4 4 4 4 4 3 2 1 3 2 1 2 1 2 2 3 2 2 2
0 3 4 4 6 5 4 4 3 2 2 3 2 3 2 1 2 2 3 2 1 3 5 7 8 7 5 6 5 6 5 4 2 3 5 6 6 5 4 4 4 3 2 1 1 1 1 3 2 3 4 4 5 4
2 5 5 5 3 4 5 4 4 3 4 3 3 3 2 1 2 2 3 2 3 4 5 6 7 8 8 8 6 5 6 6 6 6 5 5 7 6 5 4 4 3 2 3 2 1 2 1 2 3 4 5 6 7
5 4 8 6 4 5 2 4 3 3 2 3 4 2 1 2 2 4 3 3 4 5 8 9 8 7 6 5 7 6 7 6 6 4 6 7 8 7 8 7 6 5 4 4 3 3 2 1 1 3 5 6 4 8
4 6 4 2 1 2 2 6 4 3 3 4 3 4 3 3 3 3 2 3 3 4 6 7 7 7 5 6 5 4 6 7 3 2 6 8 5 4 6 7 7 5 6 5 4 4 4 4 4 5 6 6 6 7
6 3 5 5 3 1 2 4 4 4 4 3 5 5 4 5 3 1 2 2 3 4 5 5 5 4 4 6 7 9 7 7 8 9 9 6 4 4 4 3 4 6 5 5 4 3 3 4 4 5 6 7 8 9
5 2 3 7 6 5 7 7 6 4 3 4 3 3 3 3 1 2 2 3 4 6 7 6 4 6 7 7 7 6 8 10 12 13 12 8 7 5 5 4 5 5 5 5 6 5 4 5 5 6 8 8 10 10
5 6 5 5 6 8 6 6 3 2 2 1 1 1 2 2 2 2 4 5 5 5 5 6 8 8 9 9 8 7 5 5 5 6 7 8 6 6 7 6 5 4 4 4 4 3 4 6 6 6 7 9 9 10
2 6 4 5 5 6 8 7 3 3 3 3 2 3 2 2 1 2 3 5 5 6 6 6 6 6 8 9 9 9 8 7 7 7 5 4 7 8 7 6 4 3 3 4 4 4 5 6 7 9 11 13 15 12
5 8 5 5 4 3 2 4 4 5 3 3 3 1 0 1 2 2 4 6 7 7 7 7 8 8 8 6 6 6 4 8 11 9 9 7 8 8 7 5 4 3 4 4 4 5 6 9 9 11 12 15 14 14
4 4 4 5 4 3 3 4 4 3 2 2 1 1 2 2 3 1 2 3 4 5 7 8 6 4 7 7 7 7 4 7 12 10 10 10 11 9 6 5 4 4 3 2 4 6 9 12 12 14 14 13 14 13
Wind_Direction
349 350 352 354 350 350 350 359 22 18 33 34 36 39 82 98 51 58 61 4 78 337 275 271 308 260 194 73 38 346 355 27 326 120 322 101 221 138 251 54 66 222 214 197 211 233 233 2 34 21 336 310 317 329
348 351 355 351 347 349 350 22 25 16 22 33 35 45 91 106 36 74 77 359 345 218 317 310 277 268 256 266 357 86 112 176 349 325 56 328 169 241 326 208 170 213 298 318 276 39 14 1 13 353 340 307 321 323
345 350 352 353 345 348 359 17 13 17 25 33 27 23 100 77 43 48 72 351 11 10 242 263 154 85 183 225 220 278 131 211 170 261 72 53 311 306 241 220 263 200 201 256 295 124 333 325 22 357 330 330 318 327
340 348 347 350 345 356 3 5 6 15 24 26 36 85 93 67 46 63 43 352 31 55 315 94 351 23 9 186 200 210 72 126 117 257 41 72 308 215 292 323 278 344 234 255 264 274 309 147 5 347 334 324 328 330
332 336 348 349 346 347 357 358 2 12 16 28 50 120 97 69 63 66 70 42 32 348 325 337 317 28 2 171 164 194 226 309 354 343 350 5 14 238 216 261 243 203 272 250 300 347 319 300 335 323 324 325 322 330
334 334 341 347 348 340 343 347 354 6 19 46 72 124 75 28 8 113 133 81 8 2 307 33 27 13 43 131 139 151 173 214 334 329 333 244 232 247 263 253 157 218 270 259 282 308 304 293 296 302 332 320 314 314
329 332 333 339 345 336 329 325 335 352 42 95 103 111 55 348 18 29 38 333 4 297 326 334 25 43 325 249 87 81 113 97 274 262 236 304 246 235 260 248 12 303 290 291 272 285 281 266 311 315 326 305 306 297
322 324 328 331 332 324 320 318 302 294 262 201 180 278 206 332 148 192 178 81 64 36 332 54 297 323 9 326 109 3 23 122 166 315 225 343 343 12 268 339 317 296 281 274 266 250 251 281 293 297 307 300 315 318
313 316 316 320 320 315 311 314 292 276 289 280 277 274 312 174 133 65 184 139 57 1 349 267 322 349 345 35 39 46 356 278 31 297 58 347 319 244 261 292 290 283 272 270 274 273 262 261 273 289 294 293 301 310
305 312 311 308 306 304 303 294 297 274 291 301 282 248 235 149 163 120 150 250 203 140 242 262 153 77 164 61 85 72 352 7 334 39 54 293 297 269 286 277 268 275 272 259 246 240 232 246 254 254 268 290 294 298
307 305 307 303 301 301 293 273 287 246 305 230 270 279 74 154 187 102 102 328 346 283 188 237 232 173 186 171 123 149 157 130 55 232 270 296 275 305 321 324 331 329 331 222 213 240 248 249 252 258 260 263 266 358
307 306 305 306 305 307 285 247 212 181 235 359 315 289 197 232 230 314 290 201 198 257 190 214 160 218 155 215 161 174 214 192 207 255 225 3 298 316 324 357 352 14 28 50 58 220 350 329 300 242 259 220 69 61
308 310 313 313 313 303 271 224 204 183 302 189 222 234 244 183 326 247 329 292 272 182 197 183 163 197 165 208 145 203 203 74 276 64 36 0 340 351 339 340 342 29 41 44 45 41 47 46 38 45 65 61 69 71
306 315 321 323 335 330 258 199 185 165 218 246 239 285 220 213 239 211 215 224 157 166 160 166 138 225 116 173 73 263 53 249 83 40 26 339 336 348 332 324 27 46 55 69 65 52 41 47 43 11 55 49 60 68
304 310 308 276 326 312 232 169 166 193 178 224 218 236 224 248 263 273 274 199 169 142 147 143 128 230 99 121 47 130 111 79 116 17 323 352 335 340 2 344 2 17 27 48 66 90 75 65 69 54 30 48 67 82
310 312 185 18 328 320 148 142 178 219 222 223 235 252 226 268 256 202 211 204 170 145 141 164 135 172 119 113 191 142 150 202 181 205 186 185 321 357 351 346 353 19 27 22 34 48 76 93 92 80 99 88 68 64
308 239 128 60 54 121 165 174 185 217 234 220 236 229 260 283 260 249 178 164 160 167 166 155 200 90 126 161 174 191 214 181 184 186 184 208 246 220 3 351 24 30 36 32 30 26 15 63 123 100 82 77 82 78
248 148 150 86 48 148 254 220 232 235 245 228 238 211 204 234 240 214 164 155 170 162 158 166 125 203 195 193 190 182 214 236 233 237 196 210 231 234 200 74 49 49 57 46 28 19 21 11 70 94 125 119 101 81
255 278 253 257 205 226 256 204 217 255 238 228 241 233 240 246 233 64 132 155 158 157 128 158 173 209 191 199 186 163 171 203 199 190 236 247 231 208 202 155 94 65 52 39 19 22 5 2 4 321 54 121 108 88
280 282 279 233 162 203 260 215 199 256 266 281 220 218 238 220 133 148 149 157 156 175 167 194 209 188 181 170 181 173 169 164 171 189 211 217 194 191 200 186 79 63 63 45 28 10 356 358 31 17 337 59 230 118
294 161 126 115 186 215 272 267 238 234 284 269 315 245 241 213 201 177 167 160 199 218 201 193 174 148 141 126 154 158 162 178 198 238 294 175 169 180 160 151 159 36 31 26 5 7 10 3 355 7 23 34 74 101
238 255 195 191 241 205 252 235 259 301 250 281 246 235 248 239 193 183 143 197 222 214 178 163 164 155 155 164 177 196 188 193 184 143 126 128 159 172 176 165 175 143 53 22 7 350 23 32 18 41 64 86 78 67
293 185 219 210 238 267 266 210 242 213 246 230 258 252 224 227 124 154 243 227 258 190 157 147 151 169 154 143 149 168 190 198 201 208 168 161 143 146 144 151 148 135 6 33 2 358 33 21 99 60 79 57 21 360
140 220 205 211 187 252 259 244 227 242 230 239 229 262 217 224 148 230 256 241 202 137 161 154 151 139 123 142 178 184 184 200 169 147 158 150 147 145 150 142 143 105 53 93 72 82 74 61 354 28 25 2 353 342
196 240 150 241 240 249 239 237 221 205 246 203 244 246 162 209 229 251 259 253 194 181 174 164 179 176 183 195 181 186 169 185 176 168 163 165 131 133 140 144 139 126 177 182 156 114 84 66 15 6 1 356 349 339
223 218 188 204 207 220 249 285 253 245 244 214 222 105 190 223 233 245 233 209 195 174 178 183 179 181 200 197 179 183 184 177 161 164 161 171 168 164 166 169 171 174 198 224 185 197 209 229 302 310 322 325 299 302
213 228 217 210 8 45 4 267 261 264 255 227 171 167 191 227 245 250 248 209 207 192 184 179 177 188 183 164 147 118 136 154 148 109 139 162 158 149 165 177 185 161 171 192 206 239 280 267 279 296 308 313 311 308
229 247 207 167 212 168 210 278 264 244 241 144 151 184 205 213 240 226 229 163 175 137 155 168 167 154 133 148 137 132 122 116 106 108 110 108 118 146 149 156 163 145 179 193 198 215 275 270 278 295 297 300 306 309
224 192 163 203 191 188 211 219 231 238 165 176 208 209 231 215 222 211 191 179 152 152 146 150 127 119 105 112 125 136 148 151 146 154 164 170 174 176 178 180 177 184 198 200 194 248 273 256 269 283 296 301 304 304
226 191 207 210 203 219 222 204 230 231 199 228 264 240 245 221 214 158 151 151 157 189 180 155 155 156 154 156 146 144 171 183 165 160 184 192 190 160 168 178 185 189 193 218 232 239 226 257 264 276 288 303 309 316
181 181 215 221 241 238 232 231 242 260 236 211 210 249 280 329 252 216 202 170 159 145 162 165 171 172 163 163 162 163 179 190 175 147 125 133 148 157 166 172 176 181 198 224 237 254 280 292 298 303 307 312 315 314
192 200 205 223 243 248 180 202 195 206 193 195 199 195 216 270 258 161 150 154 161 175 196 191 188 192 191 175 172 167 192 166 176 168 146 148 151 155 156 161 172 193 221 233 245 269 285 293 298 303 308 311 314 316
208 195 215 265 255 242 194 181 175 162 194 217 232 189 217 263 273 123 133 206 210 202 195 199 201 174 169 172 165 155 130 151 153 141 140 141 142 145 153 167 179 208 220 251 287 293 295 301 304 308 309 312 316 317